DW9210 Weather Reports


Display with metric or nautical units.
time (UTC)temp
F
wind
direction
speed
MPH
gust
MPH
rain 1hr
in
rain 24hr
in
rain mn
in
humidity
%
barometer
mb
20260502234003 51 295 3.0 6.0 0.00 0.00 0.00 59 1016.3
20260502233524 51 295 3.0 6.0 0.00 0.00 0.00 59 1016.2
20260502233003 52 301 3.0 6.0 0.00 0.00 0.00 59 1016.3
20260502232524 53 301 3.0 5.0 0.00 0.00 0.00 57 1016.3
20260502232024 53 303 2.0 4.0 0.00 0.00 0.00 61 1016.3
20260502231524 53 310 2.0 4.0 0.00 0.00 0.00 60 1016.2
20260502231003 52 301 2.0 5.0 0.00 0.00 0.00 59 1016.1
20260502230503 53 301 3.0 5.0 0.00 0.00 0.00 61 1016.2
20260502230003 53 303 3.0 5.0 0.00 0.00 0.00 61 1016.3
20260502225524 53 298 3.0 5.0 0.00 0.00 0.00 59 1016.3
20260502225024 53 293 3.0 5.0 0.00 0.00 0.00 61 1016.3
20260502224503 53 294 3.0 5.0 0.00 0.00 0.00 60 1016.3
20260502224003 53 298 2.0 4.0 0.00 0.00 0.00 60 1016.4
20260502223524 53 289 2.0 4.0 0.00 0.00 0.00 62 1016.4
20260502223003 53 296 3.0 7.0 0.00 0.00 0.00 60 1016.4
20260502222503 53 294 3.0 7.0 0.00 0.00 0.00 57 1016.5
20260502222024 54 283 4.0 7.0 0.00 0.00 0.00 58 1016.4
20260502221524 54 288 4.0 7.0 0.00 0.00 0.00 58 1016.4
20260502221003 54 291 4.0 11.0 0.00 0.00 0.00 60 1016.3
20260502220503 54 281 5.0 12.0 0.00 0.00 0.00 57 1016.3
20260502220003 54 285 5.0 12.0 0.00 0.00 0.00 55 1016.2
20260502215503 54 296 4.0 8.0 0.00 0.00 0.00 57 1016.3
20260502215003 54 295 4.0 12.0 0.00 0.00 0.00 55 1016.2
20260502214503 54 291 4.0 12.0 0.00 0.00 0.00 55 1016.2
20260502214003 54 296 5.0 8.0 0.00 0.00 0.00 55 1016.2
20260502213503 55 304 5.0 10.0 0.00 0.00 0.00 55 1016.2
20260502213003 55 305 5.0 10.0 0.00 0.00 0.00 53 1016.0
20260502212503 54 303 5.0 8.0 0.00 0.00 0.00 57 1016.1
20260502212003 54 307 5.0 8.0 0.00 0.00 0.00 51 1016.1
20260502211503 54 304 5.0 9.0 0.00 0.00 0.00 55 1016.2
20260502211024 54 292 5.0 10.0 0.00 0.00 0.00 58 1016.1
20260502210503 54 292 5.0 10.0 0.00 0.00 0.00 54 1016.2
20260502210003 54 294 5.0 11.0 0.00 0.00 0.00 51 1016.2
20260502205503 54 290 5.0 11.0 0.00 0.00 0.00 53 1016.2
20260502205003 54 290 4.0 10.0 0.00 0.00 0.00 55 1016.2
20260502204503 54 291 5.0 10.0 0.00 0.00 0.00 59 1016.3
20260502204003 54 302 4.0 8.0 0.00 0.00 0.00 58 1016.2
20260502203524 54 321 4.0 9.0 0.00 0.00 0.00 56 1016.2
20260502203003 54 334 4.0 9.0 0.00 0.00 0.00 55 1016.3
20260502202524 53 318 4.0 8.0 0.00 0.00 0.00 60 1016.3
20260502202003 53 304 4.0 9.0 0.00 0.00 0.00 58 1016.3
20260502201503 53 309 4.0 9.0 0.00 0.00 0.00 62 1016.4
20260502201003 52 315 4.0 8.0 0.00 0.00 0.00 60 1016.5
20260502200503 52 326 4.0 8.0 0.00 0.00 0.00 58 1016.5
20260502200003 53 326 5.0 9.0 0.00 0.00 0.00 57 1016.5
20260502195503 53 324 5.0 12.0 0.00 0.00 0.00 58 1016.5
20260502195003 54 319 5.0 12.0 0.00 0.00 0.00 56 1016.4
20260502194503 54 315 5.0 9.0 0.00 0.00 0.00 55 1016.4
20260502194003 55 298 3.0 7.0 0.00 0.00 0.00 55 1016.4
20260502193503 56 255 4.0 9.0 0.00 0.00 0.00 54 1016.4
20260502193003 56 254 3.0 9.0 0.00 0.00 0.00 50 1016.3
20260502192503 56 286 4.0 8.0 0.00 0.00 0.00 52 1016.4
20260502192003 57 272 5.0 10.0 0.00 0.00 0.00 54 1016.4
20260502191503 57 251 5.0 10.0 0.00 0.00 0.00 52 1016.5
20260502191003 56 259 4.0 8.0 0.00 0.00 0.00 51 1016.5
20260502190503 56 285 4.0 8.0 0.00 0.00 0.00 58 1016.6
20260502190003 55 301 4.0 6.0 0.00 0.00 0.00 58 1016.6
20260502185503 55 314 4.0 7.0 0.00 0.00 0.00 56 1016.6
20260502185003 55 313 4.0 8.0 0.00 0.00 0.00 58 1016.6
20260502184503 55 307 3.0 8.0 0.00 0.00 0.00 55 1016.7
20260502184003 55 304 3.0 7.0 0.00 0.00 0.00 54 1016.7
20260502183503 55 297 3.0 5.0 0.00 0.00 0.00 60 1016.8
20260502183024 55 300 3.0 7.0 0.00 0.00 0.00 54 1016.8
20260502182503 55 290 4.0 8.0 0.00 0.00 0.00 55 1016.8
20260502182003 55 295 4.0 8.0 0.00 0.00 0.00 55 1016.9
20260502181503 55 296 4.0 8.0 0.00 0.00 0.00 54 1016.9
20260502181003 55 288 4.0 8.0 0.00 0.00 0.00 58 1016.9
20260502180524 54 300 4.0 8.0 0.00 0.00 0.00 60 1017.0
20260502164003 54 327 3.0 6.0 0.00 0.00 0.00 55 1017.3
20260502163524 54 352 2.0 6.0 0.00 0.00 0.00 56 1017.3
20260502163003 54 327 2.0 5.0 0.00 0.00 0.00 56 1017.3
20260502162503 54 269 2.0 4.0 0.00 0.00 0.00 54 1017.3
20260502162003 53 200 1.0 3.0 0.00 0.00 0.00 55 1017.4
20260502161503 53 201 2.0 4.0 0.00 0.00 0.00 56 1017.4
20260502161003 53 208 2.0 4.0 0.00 0.00 0.00 57 1017.4
20260502160503 53 166 2.0 5.0 0.00 0.00 0.00 55 1017.5
20260502152003 53 74 1.0 4.0 0.00 0.00 0.00 60 1017.6
20260502151503 52 338 2.0 5.0 0.00 0.00 0.00 59 1017.6
20260502151024 52 31 2.0 5.0 0.00 0.00 0.00 59 1017.7
20260502150503 52 39 3.0 7.0 0.00 0.00 0.00 62 1017.7
20260502130503 46 54 4.0 9.0 0.00 0.00 0.00 77 1017.3
20260502123524 44 57 4.0 8.0 0.00 0.00 0.00 84 1017.0
20260502123024 43 71 3.0 8.0 0.00 0.00 0.00 86 1016.9
20260502122503 42 65 2.0 7.0 0.00 0.00 0.00 87 1016.9
20260502122003 42 54 2.0 7.0 0.00 0.00 0.00 87 1017.1
20260502121524 41 47 2.0 5.0 0.00 0.00 0.00 88 1017.2
20260502121003 41 34 2.0 5.0 0.00 0.00 0.00 89 1017.4
20260502120524 40 27 2.0 5.0 0.00 0.00 0.00 89 1017.4
20260502115503 40 30 3.0 5.0 0.00 0.00 0.00 90 1017.2
20260502115003 40 34 3.0 5.0 0.00 0.00 0.00 91 1017.1
20260502114003 39 27 2.0 4.0 0.00 0.00 0.00 92 1017.0
20260502113503 39 28 2.0 4.0 0.00 0.00 0.00 92 1016.8
20260502113003 38 26 2.0 4.0 0.00 0.00 0.00 93 1016.9
20260502112503 38 25 2.0 4.0 0.00 0.00 0.00 93 1016.9
20260502112003 38 26 2.0 4.0 0.00 0.00 0.00 94 1016.8
20260502111503 37 16 2.0 3.0 0.00 0.00 0.00 94 1016.7
20260502111003 37 4 2.0 3.0 0.00 0.00 0.00 94 1016.7
20260502110503 37 2 2.0 3.0 0.00 0.00 0.00 94 1016.7
20260502110003 37 1 1.0 3.0 0.00 0.00 0.00 94 1016.8
20260502105503 37 360 1.0 2.0 0.00 0.00 0.00 93 1016.6
20260502105024 37 1 1.0 3.0 0.00 0.00 0.00 94 1016.6
20260502104503 37 2 1.0 3.0 0.00 0.00 0.00 94 1016.6
20260502104003 37 5 2.0 3.0 0.00 0.00 0.00 94 1016.6
20260502103503 37 9 1.0 3.0 0.00 0.00 0.00 94 1016.5
20260502103003 37 14 1.0 3.0 0.00 0.00 0.00 94 1016.6
20260502102524 37 22 1.0 3.0 0.00 0.00 0.00 94 1016.6
20260502102003 37 33 1.0 3.0 0.00 0.00 0.00 94 1016.5
20260502101524 37 41 2.0 3.0 0.00 0.00 0.00 95 1016.4
20260502101003 37 44 2.0 3.0 0.00 0.00 0.00 95 1016.5
20260502100503 37 41 2.0 4.0 0.00 0.00 0.00 95 1016.5
20260502091503 35 345 1.0 2.0 0.00 0.00 0.00 95 1016.7
20260502091003 35 348 1.0 2.0 0.00 0.00 0.00 95 1016.6
20260502090503 35 353 1.0 2.0 0.00 0.00 0.00 95 1016.6
20260502071503 36 322 1.0 2.0 0.00 0.00 0.00 95 1016.4
20260502071003 36 320 0.0 2.0 0.00 0.00 0.00 95 1016.4
20260502070503 35 320 0.0 2.0 0.00 0.00 0.00 95 1016.5
20260502070003 35 328 1.0 3.0 0.00 0.00 0.00 95 1016.6
20260502065503 35 332 1.0 3.0 0.00 0.00 0.00 94 1016.6
20260502065003 36 0 0.0 0.0 0.00 0.00 0.00 95 1016.5
20260502064503 36 0 0.0 0.0 0.00 0.00 0.00 95 1016.5
20260502064003 36 0 0.0 0.0 0.00 0.00 0.00 95 1016.5
20260502063503 36 0 0.0 0.0 0.00 0.00 0.00 95 1016.5
20260502063024 35 0 0.0 0.0 0.00 0.00 0.00 95 1016.5
20260502062503 35 0 0.0 0.0 0.00 0.00 0.00 94 1016.6
20260502062024 35 0 0.0 0.0 0.00 0.00 0.00 94 1016.6
20260502061503 35 0 0.0 0.0 0.00 0.00 0.00 94 1016.7
20260502061003 35 0 0.0 0.0 0.00 0.00 0.00 93 1016.7
20260502060524 35 0 0.0 0.0 0.00 0.00 0.00 93 1016.8
20260502060003 36 0 0.0 0.0 0.00 0.00 0.00 94 1016.8
20260502055503 36 0 0.0 0.0 0.00 0.00 0.00 94 1016.8
20260502055003 36 0 0.0 0.0 0.00 0.00 0.00 93 1016.9
20260502054503 36 0 0.0 0.0 0.00 0.00 0.00 93 1016.8
20260502054003 36 0 0.0 0.0 0.00 0.00 0.00 93 1016.9
20260502053503 36 0 0.0 0.0 0.00 0.00 0.00 93 1016.9
20260502053003 36 0 0.0 0.0 0.00 0.00 0.00 93 1016.9
20260502052503 36 0 0.0 0.0 0.00 0.00 0.00 94 1017.0
20260502052024 37 0 0.0 0.0 0.00 0.00 0.00 93 1017.0
20260502051503 37 0 0.0 0.0 0.00 0.00 0.00 93 1017.1
20260502051024 37 0 0.0 0.0 0.00 0.00 0.00 93 1017.0
20260502050503 37 0 0.0 0.0 0.00 0.00 0.00 93 1017.0
20260502050003 37 0 0.0 0.0 0.00 0.00 0.00 93 1017.1
20260502045524 37 356 0.0 2.0 0.00 0.00 0.00 93 1016.9
20260502045003 37 356 1.0 2.0 0.00 0.00 0.00 93 1017.0
20260502044503 37 356 1.0 2.0 0.00 0.00 0.00 93 1017.0
20260502044003 37 356 0.0 2.0 0.00 0.00 0.00 93 1017.0
20260502043503 37 0 0.0 0.0 0.00 0.00 0.00 93 1017.0
20260502043024 37 0 0.0 0.0 0.00 0.00 0.00 92 1017.0
20260502042503 38 0 0.0 0.0 0.00 0.00 0.00 92 1017.0
20260502042003 38 0 0.0 0.0 0.00 0.00 0.00 92 1017.0
20260502041503 38 356 0.0 1.0 0.00 0.00 0.00 92 1017.0
20260502041003 38 356 0.0 1.0 0.00 0.00 0.00 92 1017.0
20260502040503 38 0 0.0 0.0 0.00 0.00 0.00 91 1017.0
20260502040003 39 0 0.0 0.0 0.00 0.00 0.00 91 1017.1
20260502035503 39 0 0.0 0.0 0.00 0.00 0.00 91 1017.1
20260502035024 39 0 0.0 0.0 0.00 0.00 0.00 91 1017.1
20260502034503 39 0 0.0 0.0 0.00 0.00 0.00 90 1017.2
20260502034003 40 0 0.0 0.0 0.00 0.00 0.00 91 1017.1
20260502033503 40 0 0.0 0.0 0.00 0.00 0.00 91 1017.1
20260502033003 40 0 0.0 0.0 0.00 0.00 0.00 90 1017.1
20260502032524 40 0 0.0 0.0 0.00 0.00 0.00 90 1017.0
20260502032003 40 356 0.0 1.0 0.00 0.00 0.00 90 1017.0
20260502031503 40 356 0.0 1.0 0.00 0.00 0.00 90 1017.0
20260502031003 41 356 0.0 2.0 0.00 0.00 0.00 89 1017.0
20260502030503 41 356 0.0 2.0 0.00 0.00 0.00 89 1016.9
20260502030003 41 0 0.0 0.0 0.00 0.00 0.00 89 1016.9
20260502025503 41 0 0.0 0.0 0.00 0.00 0.00 87 1016.9
20260502025003 42 0 0.0 0.0 0.00 0.00 0.00 87 1016.9
20260502024503 42 0 0.0 0.0 0.00 0.00 0.00 87 1017.0
20260502024003 42 0 0.0 0.0 0.00 0.00 0.00 86 1017.0
20260502023503 43 0 0.0 0.0 0.00 0.00 0.00 85 1017.0
20260502023003 43 0 0.0 0.0 0.00 0.00 0.00 85 1017.1
20260502022524 43 0 0.0 0.0 0.00 0.00 0.00 85 1017.1
20260502022024 43 0 0.0 0.0 0.00 0.00 0.00 84 1017.1
20260502021503 44 0 0.0 0.0 0.00 0.00 0.00 83 1017.0
20260502021024 44 0 0.0 0.0 0.00 0.00 0.00 82 1017.0
20260502020503 45 0 0.0 0.0 0.00 0.00 0.00 82 1016.9
20260502020003 45 0 0.0 0.0 0.00 0.00 0.00 81 1016.8
20260502015503 45 356 0.0 1.0 0.00 0.00 0.00 79 1016.7
20260502015003 46 357 0.0 1.0 0.00 0.00 0.00 79 1016.6
20260502014503 46 357 1.0 2.0 0.00 0.00 0.00 77 1016.4
20260502014003 47 360 1.0 2.0 0.00 0.00 0.00 76 1016.3
20260502013503 47 22 0.0 1.0 0.00 0.00 0.00 75 1016.2
20260502013003 48 27 0.0 1.0 0.00 0.00 0.00 74 1016.1
20260502012503 48 27 1.0 2.0 0.00 0.00 0.00 72 1015.9
20260502012024 48 25 1.0 2.0 0.00 0.00 0.00 67 1015.7
20260502011503 48 29 1.0 2.0 0.00 0.00 0.00 67 1015.6
20260502011003 49 31 1.0 3.0 0.00 0.00 0.00 66 1015.5
20260502010503 49 19 2.0 3.0 0.00 0.00 0.00 66 1015.4
20260502010024 49 354 2.0 4.0 0.00 0.00 0.00 66 1015.4
20260502005503 49 348 2.0 6.0 0.00 0.00 0.00 66 1015.4
20260502005003 50 347 3.0 6.0 0.00 0.00 0.00 66 1015.4
20260502004503 50 333 3.0 7.0 0.00 0.00 0.00 65 1015.3
20260502004003 50 333 4.0 9.0 0.00 0.00 0.00 64 1015.3
20260502003503 50 342 4.0 9.0 0.00 0.00 0.00 64 1015.1
20260502003003 50 346 3.0 7.0 0.00 0.00 0.00 66 1015.1
20260502002503 51 346 2.0 6.0 0.00 0.00 0.00 65 1014.8
20260502002024 51 333 2.0 5.0 0.00 0.00 0.00 65 1014.9
20260502001503 51 311 2.0 5.0 0.00 0.00 0.00 64 1014.8
20260502001003 52 300 2.0 5.0 0.00 0.00 0.00 64 1014.7
20260502000503 52 299 3.0 5.0 0.00 0.00 0.00 62 1014.5
20260502000003 52 299 3.0 5.0 0.00 0.00 0.00 63 1014.3
20260501235503 53 305 4.0 7.0 0.00 0.00 0.00 61 1014.4
20260501235003 53 314 3.0 7.0 0.00 0.00 0.00 62 1014.1
20260501234503 53 323 3.0 6.0 0.00 0.00 0.00 62 1014.1